This demonstration page uses our WeatherBlox Daily Observations layout. Learn more.

Left ArrowRight Arrow

Hourly Observations for August 30, 2022

Temp ( °F °C ) Dew Point ( °F °C ) Humidity (%) Winds ( mph kmh ) Pressure ( in mb ) Visibility ( mi km ) Precip ( " mm )
12:52 am 00:52 Clear 64 17.8 61 16.1 90 90 N 9 15 30.03 1017 10 16 0.00 0.00
1:52 am 01:52 Clear 63 17.2 59 15 87 87 N 9 15 30.04 1017 10 16 0.00 0.00
2:52 am 02:52 Clear 60 15.6 58 14.4 93 93 N 6 9 30.06 1018 10 16 0.00 0.00
3:52 am 03:52 Clear 59 15 57 13.9 93 93 NNW 5 7 30.06 1018 10 16 0.00 0.00
4:52 am 04:52 Clear 58 14.4 57 13.9 97 97 N 7 11 30.07 1018 10 16 0.00 0.00
5:52 am 05:52 Clear 57 13.9 56 13.3 96 96 NNW 7 11 30.08 1019 10 16 0.00 0.00
6:52 am 06:52 Sunny 58 14.4 55 12.8 90 90 N 7 11 30.10 1019 10 16 0.00 0.00
7:52 am 07:52 Sunny 59 15 57 13.9 93 93 N 7 11 30.13 1020 10 16 0.00 0.00
8:52 am 08:52 Sunny 64 17.8 58 14.4 80 80 N 6 9 30.15 1021 10 16 0.00 0.00
9:52 am 09:52 Sunny 69 20.6 58 14.4 68 68 N 10 17 30.15 1021 10 16 0.00 0.00
10:52 am 10:52 Sunny 75 23.9 56 13.3 51 51 N 9 15 30.15 1021 10 16 0.00 0.00
11:52 am 11:52 Sunny 79 26.1 57 13.9 47 47 VRB 3 6 30.16 1021 10 16 0.00 0.00
12:52 pm 12:52 Sunny 82 27.8 53 11.7 37 37 N 9 15 30.14 1021 10 16 0.00 0.00
1:52 pm 13:52 Sunny 83 28.3 53 11.7 36 36 N 6 9 30.14 1021 10 16 0.00 0.00
2:52 pm 14:52 Sunny 84 28.9 53 11.7 35 35 N 7 11 30.11 1020 10 16 0.00 0.00
3:52 pm 15:52 Sunny 85 29.4 51 10.6 31 31 NNW 10 17 30.09 1019 10 16 0.00 0.00
4:52 pm 16:52 Sunny 85 29.4 51 10.6 31 31 NNW 10 17 30.08 1019 10 16 0.00 0.00
5:52 pm 17:52 Sunny 85 29.4 53 11.7 34 34 NNW 8 13 30.07 1018 10 16 0.00 0.00
6:52 pm 18:52 Sunny 82 27.8 57 13.9 43 43 NNW 5 7 30.07 1018 10 16 0.00 0.00
7:52 pm 19:52 Mostly Sunny 79 26.1 56 13.3 45 45 NNW 3 6 30.08 1019 10 16 0.00 0.00
8:52 pm 20:52 Mostly Clear 72 22.2 60 15.6 66 66 Calm 30.10 1019 10 16 0.00 0.00
9:52 pm 21:52 Mostly Clear 73 22.8 57 13.9 57 57 SSW 3 6 30.10 1019 9 14 0.00 0.00
10:52 pm 22:52 Mostly Clear 66 18.9 61 16.1 84 84 Calm 30.10 1019 10 16 0.00 0.00
11:52 pm 23:52 Mostly Clear 64 17.8 60 15.6 87 87 Calm 30.11 1020 10 16 0.00 0.00

Powered by AerisWeather